www.pogodaiklimat.ru

Архив погоды в Тобольске (Тюменская область, Россия)

Время
(UTC), дата
15 19.05
18 19.05
21 19.05
00 20.05
03 20.05
06 20.05
09 20.05
12 20.05
15 20.05
18 20.05
21 20.05
00 21.05
03 21.05
06 21.05
09 21.05
12 21.05
15 21.05
18 21.05
21 21.05
00 22.05
03 22.05
06 22.05
09 22.05
12 22.05
15 22.05
18 22.05
21 22.05
00 23.05
03 23.05
06 23.05
09 23.05
12 23.05
15 23.05
18 23.05
21 23.05
00 24.05
03 24.05
06 24.05
09 24.05
12 24.05
15 24.05
18 24.05
21 24.05
00 25.05
03 25.05
06 25.05
09 25.05
12 25.05
15 25.05
18 25.05
21 25.05
00 26.05
03 26.05
Ветер
(напр.,м/с)
Видим. Явления Облачность Т
(С)
Тd
(С)
f
(%)
Тe
(С)
Тes
(С)
Комфортность P
(гПа)
Po
(гПа)
Тmin
(С)
Tmax
(С)
R
(мм)
R24
(мм)
S
(см)
С 2 20 км 3/0
[Ac trans]
+10.4 -1.8 42 +10 +10 тепло 1016.3 1010.6 +11.8
СВ 2 10 км 3/0
[Ci sp]
+6.5 -0.7 60 +5 +5 по сезону 1016.2 1010.4
СВ 3 10 км 3/0
[Ci sp]
+4.3 -2.4 62 +1 +1 по сезону 1016.3 1010.4
СВ 3 20 км 4/0
[Ci sp]
+4.7 -2.7 59 +2 +2 прохладно 1016.4 1010.6
СВ 4 20 км 3/0
[Ci sp]
+10.5 -3.8 36 +9 +12 по сезону 1016.4 1010.7 +3.5
СВ 3 20 км 3/0
[Ci sp]
+14.3 -2.5 31 +14 +24 по сезону 1015.2 1009.6
С 3 20 км 6/0
[Ac lent]
+16.4 -0.4 32 +16 +22 тепло 1013.9 1008.3
С 3 20 км 8/0
[Ci ing]
+18.0 +1.3 33 +18 +22 тепло 1012.8 1007.3
ЮВ 2 20 км 3/0
[Ci fib]
+16.2 +2.7 40 +16 +17 тепло 1012.4 1006.8 +18.3
В 2 10 км ясно +8.2 +4.9 80 +6 +6 по сезону 1012.9 1007.2
В 1 10 км ясно +5.0 +3.4 89 +4 +4 прохладно 1012.5 1006.7
ЮВ 1 20 км ясно +6.6 +4.3 85 +6 +6 по сезону 1011.7 1005.9
Ю 1 20 км ясно +15.4 +2.8 43 +16 +23 тепло 1010.5 1004.9 +3.9
З 2 20 км 4/0
[Ci sp]
+19.8 +3.1 33 +21 +33 комфорт 1008.7 1003.2
Ю 3 20 км 3/3 600 м
[Cu hum]
+21.9 +3.8 31 +22 +30 комфорт 1006.8 1001.3
Ю 2 20 км 8/4 600 м
[Cu hum Ci sp]
+22.3 +3.0 28 +22 +25 комфорт 1005.1 999.7
Ю 2 20 км 6/0
[Ac trans]
+20.1 +3.7 34 +21 +21 комфорт 1004.1 998.6 +22.8
С 5 10 км 6/3 600 м
[Sc Ac trans]
+15.4 +6.5 55 +14 +14 тепло 1004.9 999.4
СЗ 5 {13} 10 км 10/8 600 м
[Sc Ac und]
+9.3 +5.8 79 +6 +6 по сезону 1007.5 1001.8
штиль 0 {13} 50 км ?/? +7.2 -0.1 60 +7 +7 по сезону 1009.6 1003.8
С 4 н/о н/о +6.9 +1.5 68 +4 +6 прохладно 1011.8 1006.1 +5.8
СЗ 4 20 км 10/6 600 м
[Sc Ci sp]
+9.6 -2.6 42 +7 +10 холодно 1013.1 1007.4
СЗ 4 20 км 8/4 600 м
[Sc Ci sp]
+11.6 -5.0 31 +10 +14 прохладно 1013.7 1008.0
С 5 {11} 20 км 10/6 600 м
[Sc Ac trans Ci sp]
+10.2 -0.9 46 +8 +8 холодно 1015.3 1009.6
С 4 20 км 8/3 600 м
[Sc Ci sp]
+7.7 -2.5 48 +5 +5 холодно 1016.9 1011.1 +12.4
С 2 10 км 3/3 600 м
[Sc]
+4.8 -4.0 53 +3 +3 холодно 1018.9 1013.0
СЗ 1 10 км ясно -1.0 -3.6 82 -3 -3 очень холодно 1019.4 1013.4
Ю 1 20 км местами туман поземный 3/0
[Ci fib]
-1.0 -2.0 93 -3 -3 очень холодно 1020.0 1014.0
З 1 20 км 4/0
[Ci fib]
+7.1 -5.1 42 +7 +13 по сезону 1020.1 1014.3 -2.8
СЗ 2 20 км 6/6 600 м
[Cu med, cong]
+8.0 -8.1 31 +7 +12 холодно 1019.9 1014.1
СЗ 2 20 км 9/6 600 м
[Cb cap Ac trans]
+8.9 -8.1 29 +8 +11 холодно 1019.4 1013.6
З 2 20 км 9/5 600 м
[Cb cap Ac und]
+8.3 -6.1 35 +7 +8 очень холодно 1019.4 1013.6
С 3 20 км 10/6 600 м
[Sc Ac und Ci sp]
+6.5 -5.6 42 +4 +4 очень холодно 1020.3 1014.5 +10.1
штиль 0 50 км ?/? +4.6 -5.1 49 +4 +4 прохладно 1020.9 1015.0
СЗ 3 10 км 6/4 600 м
[Sc Ci sp]
+2.5 -2.3 71 -1 -1 очень холодно 1021.5 1015.6
СЗ 2 20 км 3/3 600 м
[Sc]
+1.7 -1.5 79 -2 -1 холодно 1022.5 1016.6
СЗ 4 20 км 8/5 600 м
[Sc Ac trans]
+3.5 -3.6 60 -1 +1 очень холодно 1022.7 1016.8 +1.0
СЗ 3 20 км в посл. час крупа 8/8 600 м
[Cb cap]
+5.6 -7.1 40 +3 +5 очень холодно 1022.8 1017.0
С 4 20 км 8/8 600 м
[Cb cap]
+5.7 -7.0 40 +3 +4 очень холодно 1023.3 1017.4
С 3 {11} 20 км 10/10 600 м
[Cb cap]
+6.4 -8.1 35 +4 +4 очень холодно 1023.6 1017.7
СЗ 2 20 км 6/4 600 м
[Sc Ac trans]
+5.6 -8.9 34 +4 +4 очень холодно 1023.7 1017.8 +7.2 0.0
ЮЗ 1 10 км ясно -1.2 -7.7 61 -3 -3 очень холодно 1024.3 1018.3
ЮВ 1 20 км ясно -3.3 -5.7 83 -6 -6 очень холодно 1023.5 1017.4
ЮВ 1 20 км ясно -0.2 -5.4 68 -2 -1 холодно 1022.6 1016.7
Ю 5 20 км ясно +6.7 -7.9 34 +3 +7 холодно 1020.8 1015.0 -4.5
Ю 4 20 км 10/0
[Ac trans Ci sp]
+10.5 -6.9 29 +9 +15 прохладно 1018.1 1012.3
ЮЗ 6-11 {11} 20 км 10/4 600 м
[Sc Ac trans Ci sp]
+11.9 -5.4 29 +10 +11 прохладно 1014.8 1009.1
ЮЗ 6-10 {12} 20 км 10/0
[Ac trans Ci sp]
+14.4 -2.0 32 +13 +14 по сезону 1011.6 1006.0
Ю 5 {10} 20 км 10/3 600 м
[Sc Ci sp]
+13.9 -0.6 37 +12 +13 по сезону 1009.0 1003.4 +14.7
ЮЗ 3 10 км 10/8 600 м
[Sc Ac und]
+12.8 +0.4 43 +12 +12 тепло 1007.5 1001.9
ЮЗ 2 10 км 8/4 600 м
[Sc Ac trans]
+11.6 +3.4 57 +11 +11 тепло 1004.3 998.7
С 3 10 км слаб. ливневой дождь 10/6 600 м
[Cb cap]
+9.1 +7.1 87 +7 +7 по сезону 1003.8 998.2
С 3 10 км слаб. ливневой дождь 10/8 600 м
[Cb cap]
+7.4 +6.8 96 +4 +5 прохладно 1005.3 999.6 +7.4 4
Местоположение метеостанции Тобольск (Тюменская область, Россия): широта 58.15 долгота 68.25 высота над уровнем моря 47 м.
В архиве по умолчанию представлена погода в Тобольске за последнюю неделю. Архивные данные за месяц целиком и за предыдущие месяцы, начиная с января 2011 года, Вы можете получить, выбрав интересующий диапазон дат из раскрывающегося списка и нажав кнопку "Найти!".
*Определитесь, кто Вы:
Внимание! Время в таблицах - всемирное. Для получения местного времени необходимо прибавить поправку, которая равна 5 ч.
Некоторые строки с данными для отдельных станций могут быть выделены курсивом. Это означает, что фактические данные отсутствуют по различным причинам, а приведенные значения являются расчетными модельными данными для данного пункта наблюдений.
Смотрите также архив погоды в соседних городах и на ближайших метеорологических станциях:
Партнеры нашего сайта:      
Пояснения к столбцам:
  • Ветер - указаны скорость ветра в м/с - средняя за 10 мин, порывы в срок и между сроками (в фигурных скобках) и направление, откуда дует ветер: С - северный,
  • СВ - северо-восточный, В - восточный, ЮВ - юго-восточный, Ю - южный, ЮЗ - юго-западный, З - западный, СЗ - северо-западный.
  • Видимость - горизонтальная дальность видимости в метрах или километрах. При видимости от 1 до 10 км при отсутствии осадков обычно наблюдается дымка, при ухудшении видимости до 1 км и менее - туман. В сухую погоду видимость может ухудшаться дымом, пылью или мглою.
  • Явления - указаны атмосферные явления, наблюдавшиеся в срок или в последний час перед сроком; фигурными скобками обозначены явления, наблюдавшиеся между сроками (за 1-3 часа до срока); квадратными скобками обозначены град или гололедные отложения с указанием их диаметра в мм.
  • Облачность - указаны через наклонную черту общая и нижняя облачность в баллах и высота нижней границы облаков в метрах; квадратными скобками обозначены формы облаков: Ci - перистые, Cs - перисто-слоистые, Cc - перисто-кучевые, Ac - высококучевые, As - высокослоистые, Sc - слоисто-кучевые, Ns - слоисто-дождевые, Cu - кучевые, Cb - кучево-дождевые. Подробнее классификацию облаков см. в Атласе облаков (PDF).
  • T - Температура воздуха - температура, измеренная на высоте 2 м над землей.
  • Td - Температура точки росы - температура, при понижении до которой содержащийся в воздухе водяной пар достигнет насыщения.
  • f - Относительная влажность воздуха - влажноcть воздуха, измеренная на высоте 2 м над землей.
  • Te - Эффективная температура - температура, которую ощущает одетый по сезону человек в тени. Характеристика душности погоды. При расчете учитывается влияние влажности воздуха и скорости ветра на теплоощущения человека.
  • Tes - Эффективная температура на солнце - температура, которую ощущает человек, с поправкой на солнечный нагрев. Характеристика знойности погоды. Зависит от высоты солнца над горизонтом, облачности и скорости ветра. Ночью, в пасмурную погоду, а также при ветре 12 м/с и более поправка равна нулю.
  • P - Атмосферное давление - приведенное к уровню моря атмосферное давление.
  • Po - Атмосферное давление - измеренное на уровне метеостанции атмосферное давление.
  • Tmin - Минимальная температура - минимум температуры воздуха на высоте 2 м над землей.
  • Tmax - Максимальная температура - максимум температуры воздуха на высоте 2 м над землей.
  • R - Количество осадков - Количество выпавших осадков за период времени, мм. При наведении курсора мыши на число - период времени, за который выпало указанное количество осадков.
  • R24 - Количество осадков - Количество выпавших осадков за 24 часа, мм.
  • S - Снежный покров - Высота снежного покрова, см. При наведении курсора мыши на число - состояние снежного покрова и степень покрытия местности в баллах.